Flag for U.S.A. Weather past 2 weeks in Miami, Florida, U.S.A.

77 °F

Passing clouds.

Feels Like: 78 °F
Forecast: 74 / 85 °F
Wind: No wind

Location: Miami International Airport

Current Time: Oct 7, 2015 at 8:47:01 AM

Latest Report: Oct 7, 2015 at 7:53 AM

Visibility: 10 mi

Pressure: 29.94 "Hg

Humidity: 88%

Dew point: 73 °F

Location of MiamiLocation

Historic Weather in Miami — Graph


Miami temperature yesterday

Maximum temperature yesterday: 85 °F (at 2:53 PM)
Minimum temperature yesterday: 74 °F (at 3:53 AM)
Average temperature yesterday: 79 °F

Past Weeks' High & Low Weather Summary

High92 °F (Sep 30, 3:53 PM)97% (Sep 22, 5:55 PM)29.96 "Hg (Sep 22, 5:55 PM)
Low72 °F (Oct 4, 6:53 AM)39% (Oct 3, 1:53 PM)29.51 "Hg (Oct 2, 4:53 PM)
Average81 °F75%29.82 "Hg
* Reported Sep 22 7:53 AM — Oct 7 7:53 AM, Miami, Weather by CustomWeather, © 2015

Note: Actual official high and low records may vary slightly from our data, if they occured in-between our weather recording intervals... More about our weather records


Miami weather history for previous 24 hours

Time TempWeatherWind HumidityBarometerVisibility
7:53 AM
Wed, Oct 7
77 °FPassing clouds.No wind88%29.94 "Hg10 mi
6:53 AM76 °FPassing clouds.No wind88%29.93 "Hg10 mi
5:53 AM77 °FPassing clouds.No wind85%29.90 "Hg10 mi
4:53 AM77 °FPassing clouds.6 mph85%29.89 "Hg10 mi
3:53 AM78 °FPassing clouds.3 mph82%29.90 "Hg10 mi
2:53 AM78 °FPassing clouds.No wind82%29.90 "Hg10 mi
1:53 AM78 °FPassing clouds.3 mph82%29.91 "Hg10 mi
12:53 AM78 °FPassing clouds.3 mph79%29.92 "Hg10 mi
11:53 PM
Tue, Oct 6
78 °FPassing clouds.5 mph82%29.93 "Hg10 mi
10:53 PM78 °FPassing clouds.7 mph82%29.93 "Hg10 mi
9:53 PM78 °FPassing clouds.6 mph82%29.92 "Hg10 mi
8:53 PM79 °FPassing clouds.3 mph72%29.91 "Hg10 mi
7:53 PM81 °FBroken clouds.No wind65%29.89 "Hg10 mi
6:53 PM81 °FBroken clouds.9 mph72%29.88 "Hg10 mi
5:53 PM85 °FPartly sunny.6 mph55%29.86 "Hg10 mi
4:53 PM85 °FPartly sunny.9 mph53%29.86 "Hg10 mi
3:53 PM85 °FPartly sunny.7 mph53%29.86 "Hg10 mi
2:53 PM85 °FBroken clouds.7 mph51%29.87 "Hg10 mi
1:53 PM84 °FPartly sunny.9 mph57%29.89 "Hg10 mi
12:53 PM84 °FPartly sunny.8 mph57%29.91 "Hg10 mi
11:53 AM83 °FBroken clouds.10 mph63%29.93 "Hg10 mi
10:53 AM83 °FPartly sunny.7 mph63%29.93 "Hg10 mi
9:53 AM82 °FPartly sunny.10 mph67%29.92 "Hg10 mi
8:53 AM79 °FScattered clouds.6 mph79%29.91 "Hg10 mi
Weather by CustomWeather, © 2015

See weather overviewHow to use our weather pages